Flag for China Weather past 2 weeks in Lanchow, Gansu, China

Now
54 °F

Passing clouds.


Feels Like: 52 °F
Forecast: 43 / 66 °F
Wind: 6 mph from South

Location: Lanzhou / Zhongchuan

Current Time: Oct 23, 2014 at 12:31:42 PM

Latest Report: Oct 23, 2014 at 11:00 AM


Visibility: N/A

Pressure: 30.24 "Hg

Humidity: 47%

Dew point: 34 °F

Location of LanchowLocation

Historic Weather in Lanchow — Graph

°F

Lanchow temperature yesterday

Maximum temperature yesterday: 63 °F (at 2:00 PM)
Minimum temperature yesterday: 39 °F (at 12:00 AM)
Average temperature yesterday: 48 °F

Past Weeks' High & Low Weather Summary

 TemperatureHumidityPressure
High70 °F (Oct 8, 3:00 PM)100% (Oct 9, 4:00 AM)30.60 "Hg (Oct 9, 4:00 AM)
Low30 °F (Oct 11, 6:00 AM)22% (Oct 22, 2:00 PM)29.92 "Hg (Oct 9, 4:00 PM)
Average45 °F73%30.26 "Hg
* Reported Oct 8 11:00 AM — Oct 23 11:00 AM, Lanchow, Weather by CustomWeather, © 2014

Note: Actual official high and low records may vary slightly from our data, if they occured in-between our weather recording intervals... More about our weather records

Advertising

Lanchow weather history for previous 24 hours

 ConditionsComfort  
Time TempWeatherWind HumidityBarometerVisibility
11:00 AM
Oct 23
54 °FPassing clouds.6 mph47%30.24 "HgN/A
10:00 AM50 °FPassing clouds.3 mph54%30.27 "HgN/A
9:00 AM45 °FClear.1 mph66%30.27 "Hg4 mi
8:00 AM34 °FClear.3 mph87%30.24 "Hg4 mi
7:00 AM32 °FClear.6 mph87%30.24 "Hg4 mi
6:00 AM32 °FClear.3 mph87%30.24 "Hg4 mi
5:00 AM34 °FClear.6 mph87%30.24 "Hg10 mi
4:00 AM34 °FClear.6 mph87%30.24 "Hg10 mi
3:00 AM37 °FPassing clouds.3 mph75%30.27 "HgN/A
2:00 AM37 °FClear.3 mph81%30.27 "Hg10 mi
1:00 AM37 °FClear.6 mph81%30.27 "Hg10 mi
12:00 AM39 °FClear.6 mph75%30.30 "Hg10 mi
11:00 PM
Oct 22
39 °FClear.6 mph81%30.30 "Hg5 mi
10:00 PM41 °FClear.6 mph81%30.30 "Hg5 mi
9:00 PM41 °FClear.6 mph81%30.30 "Hg5 mi
8:00 PM45 °FClear.3 mph71%30.30 "Hg10 mi
7:00 PM50 °FSunny.1 mph54%30.27 "Hg10 mi
6:00 PM57 °FSunny.3 mph33%30.24 "Hg10 mi
5:00 PM61 °FPassing clouds.6 mph27%30.24 "HgN/A
4:00 PM61 °FSunny.8 mph25%30.24 "Hg10 mi
3:00 PM63 °FPassing clouds.8 mph22%30.27 "HgN/A
2:00 PM63 °FScattered clouds.8 mph22%30.30 "HgN/A
1:00 PM61 °FPassing clouds.13 mph31%30.33 "HgN/A
12:00 PM57 °FScattered clouds.8 mph36%30.33 "HgN/A
Weather by CustomWeather, © 2014

See weather overviewHow to use our weather pages